Time,TemperatureF,DewpointF,PressureIn,WindDirection,WindDirectionDegrees,WindSpeedMPH,WindSpeedGustMPH,Humidity,HourlyPrecipIn,Conditions,Clouds,dailyrainin,SoftwareType,DateUTC
2013-10-02 00:00:00,29.0,26.0,29.82,NE,40,3.0,7.0,88,0.00,,,0.05,,2013-10-02 08:00:00,
2013-10-02 00:42:00,29.0,26.0,29.82,NE,40,3.0,7.0,88,0.00,,,0.05,,2013-10-02 08:42:00,
2013-10-02 00:52:00,29.0,26.0,29.82,NE,40,3.0,7.0,88,0.00,,,0.05,,2013-10-02 08:52:00,
2013-10-02 01:00:00,29.0,26.0,29.82,NE,46,3.0,8.0,87,0.00,,,0.05,,2013-10-02 09:00:00,
2013-10-02 01:43:00,29.0,26.0,29.82,NE,46,3.0,8.0,87,0.00,,,0.05,,2013-10-02 09:43:00,
2013-10-02 01:54:00,29.0,26.0,29.82,NE,46,3.0,8.0,87,0.00,,,0.05,,2013-10-02 09:54:00,
2013-10-02 02:00:00,30.0,26.0,29.82,NE,39,3.0,8.0,84,0.00,,,0.05,,2013-10-02 10:00:00,
2013-10-02 02:42:00,30.0,26.0,29.82,NE,39,3.0,8.0,84,0.00,,,0.05,,2013-10-02 10:42:00,
2013-10-02 02:52:00,30.0,26.0,29.82,NE,39,3.0,8.0,84,0.00,,,0.05,,2013-10-02 10:52:00,
2013-10-02 03:00:00,30.0,25.0,29.82,NE,45,3.0,7.0,83,0.00,,,0.05,,2013-10-02 11:00:00,
2013-10-02 03:43:00,30.0,25.0,29.82,NE,45,3.0,7.0,83,0.00,,,0.05,,2013-10-02 11:43:00,
2013-10-02 03:52:00,30.0,25.0,29.82,NE,45,3.0,7.0,83,0.00,,,0.05,,2013-10-02 11:52:00,
2013-10-02 04:00:00,30.0,25.0,29.81,NE,42,2.0,6.0,83,0.00,,,0.05,,2013-10-02 12:00:00,
2013-10-02 04:42:00,30.0,25.0,29.81,NE,42,2.0,6.0,83,0.00,,,0.05,,2013-10-02 12:42:00,
2013-10-02 04:52:00,30.0,25.0,29.81,NE,42,2.0,6.0,83,0.00,,,0.05,,2013-10-02 12:52:00,
2013-10-02 05:00:00,30.0,25.0,29.81,NE,49,3.0,7.0,83,0.00,,,-99.99,,2013-10-02 13:00:00,
2013-10-02 05:42:00,30.0,25.0,29.81,NE,49,3.0,7.0,83,0.00,,,-99.99,,2013-10-02 13:42:00,
2013-10-02 05:52:00,30.0,25.0,29.81,NE,49,3.0,7.0,83,0.00,,,-99.99,,2013-10-02 13:52:00,
2013-10-02 06:00:00,31.0,26.0,29.81,ENE,71,5.0,10.0,82,0.00,,,0.05,,2013-10-02 14:00:00,
2013-10-02 06:42:00,31.0,26.0,29.81,ENE,71,5.0,10.0,82,0.00,,,0.05,,2013-10-02 14:42:00,
2013-10-02 06:52:00,31.0,26.0,29.81,ENE,71,5.0,10.0,82,0.00,,,0.05,,2013-10-02 14:52:00,
2013-10-02 07:00:00,31.0,26.0,29.81,ENE,68,5.0,11.0,82,0.00,,,0.05,,2013-10-02 15:00:00,
2013-10-02 07:43:00,31.0,26.0,29.81,ENE,68,5.0,11.0,82,0.00,,,0.05,,2013-10-02 15:43:00,
2013-10-02 07:54:00,31.0,26.0,29.81,ENE,68,5.0,11.0,82,0.00,,,0.05,,2013-10-02 15:54:00,
2013-10-02 08:00:00,31.0,27.0,29.81,ENE,72,6.0,11.0,85,0.00,,,0.05,,2013-10-02 16:00:00,
2013-10-02 08:43:00,31.0,27.0,29.81,ENE,72,6.0,11.0,85,0.00,,,0.05,,2013-10-02 16:43:00,
2013-10-02 08:52:00,31.0,27.0,29.81,ENE,72,6.0,11.0,85,0.00,,,0.05,,2013-10-02 16:52:00,
2013-10-02 09:00:00,32.0,28.0,29.81,ENE,68,6.0,11.0,85,0.00,,,0.05,,2013-10-02 17:00:00,
2013-10-02 09:42:00,32.0,28.0,29.81,ENE,68,6.0,11.0,85,0.00,,,0.05,,2013-10-02 17:42:00,
2013-10-02 09:52:00,32.0,28.0,29.81,ENE,68,6.0,11.0,85,0.00,,,0.05,,2013-10-02 17:52:00,
2013-10-02 10:00:00,34.0,28.0,29.81,East,94,4.0,11.0,79,0.00,,,0.05,,2013-10-02 18:00:00,
2013-10-02 10:42:00,34.0,28.0,29.81,East,94,4.0,11.0,79,0.00,,,0.05,,2013-10-02 18:42:00,
2013-10-02 10:52:00,34.0,28.0,29.81,East,94,4.0,11.0,79,0.00,,,0.05,,2013-10-02 18:52:00,
2013-10-02 11:00:00,35.0,28.0,29.82,East,93,4.0,10.0,75,0.00,,,0.05,,2013-10-02 19:00:00,
2013-10-02 11:42:00,35.0,28.0,29.82,East,93,4.0,10.0,75,0.00,,,0.05,,2013-10-02 19:42:00,
2013-10-02 11:52:00,35.0,28.0,29.82,East,93,4.0,10.0,75,0.00,,,0.05,,2013-10-02 19:52:00,
2013-10-02 12:00:00,39.0,29.0,29.82,East,82,2.0,8.0,68,0.00,,,0.05,,2013-10-02 20:00:00,
2013-10-02 12:42:00,39.0,29.0,29.82,East,82,2.0,8.0,68,0.00,,,0.05,,2013-10-02 20:42:00,
2013-10-02 12:52:00,39.0,29.0,29.82,East,82,2.0,8.0,68,0.00,,,0.05,,2013-10-02 20:52:00,
2013-10-02 13:00:00,42.0,29.0,29.81,East,86,3.0,7.0,60,0.00,,,0.04,,2013-10-02 21:00:00,
2013-10-02 13:44:00,42.0,29.0,29.81,East,86,3.0,7.0,60,0.00,,,0.04,,2013-10-02 21:44:00,
2013-10-02 13:54:00,42.0,29.0,29.81,East,86,3.0,7.0,60,0.00,,,0.04,,2013-10-02 21:54:00,
2013-10-02 14:00:00,43.0,28.0,29.81,East,88,4.0,11.0,56,0.00,,,0.02,,2013-10-02 22:00:00,
2013-10-02 14:44:00,43.0,28.0,29.81,East,88,4.0,11.0,56,0.00,,,0.02,,2013-10-02 22:44:00,
2013-10-02 14:53:00,43.0,28.0,29.81,East,88,4.0,11.0,56,0.00,,,0.02,,2013-10-02 22:53:00,
2013-10-02 15:00:00,43.0,28.0,29.80,East,86,3.0,11.0,56,0.00,,,0.01,,2013-10-02 23:00:00,
2013-10-02 15:42:00,43.0,28.0,29.80,East,86,3.0,11.0,56,0.00,,,0.01,,2013-10-02 23:42:00,
2013-10-02 15:52:00,43.0,28.0,29.80,East,86,3.0,11.0,56,0.00,,,0.01,,2013-10-02 23:52:00,
2013-10-02 16:00:00,41.0,28.0,29.80,East,81,3.0,9.0,60,0.00,,,0.01,,2013-10-03 00:00:00,
2013-10-02 16:42:00,41.0,28.0,29.80,East,81,3.0,9.0,60,0.00,,,0.01,,2013-10-03 00:42:00,
2013-10-02 16:52:00,41.0,28.0,29.80,East,81,3.0,9.0,60,0.00,,,0.01,,2013-10-03 00:52:00,
2013-10-02 17:00:00,39.0,28.0,29.79,East,80,1.0,6.0,65,0.00,,,0.01,,2013-10-03 01:00:00,
2013-10-02 17:42:00,39.0,28.0,29.79,East,80,1.0,6.0,65,0.00,,,0.01,,2013-10-03 01:42:00,
2013-10-02 17:52:00,39.0,28.0,29.79,East,80,1.0,6.0,65,0.00,,,0.01,,2013-10-03 01:52:00,
2013-10-02 18:00:00,38.0,28.0,29.79,NE,55,1.0,4.0,67,0.00,,,0.00,,2013-10-03 02:00:00,
2013-10-02 18:52:00,38.0,28.0,29.79,NE,55,1.0,4.0,67,0.00,,,0.00,,2013-10-03 02:52:00,
2013-10-02 19:00:00,37.0,27.0,29.79,NE,39,3.0,6.0,68,0.00,,,0.00,,2013-10-03 03:00:00,
2013-10-02 19:44:00,37.0,27.0,29.79,NE,39,3.0,6.0,68,0.00,,,0.00,,2013-10-03 03:44:00,
2013-10-02 19:54:00,37.0,27.0,29.79,NE,39,3.0,6.0,68,0.00,,,0.00,,2013-10-03 03:54:00,
2013-10-02 20:00:00,38.0,28.0,29.78,ENE,60,4.0,9.0,67,0.00,,,0.00,,2013-10-03 04:00:00,
2013-10-02 20:44:00,38.0,28.0,29.78,ENE,60,4.0,9.0,67,0.00,,,0.00,,2013-10-03 04:44:00,
2013-10-02 20:53:00,38.0,28.0,29.78,ENE,60,4.0,9.0,67,0.00,,,0.00,,2013-10-03 04:53:00,
2013-10-02 21:00:00,38.0,28.0,29.78,NE,56,5.0,11.0,66,0.00,,,-99.99,,2013-10-03 05:00:00,
2013-10-02 21:43:00,38.0,28.0,29.78,NE,56,5.0,11.0,66,0.00,,,-99.99,,2013-10-03 05:43:00,
2013-10-02 21:52:00,38.0,28.0,29.78,NE,56,5.0,11.0,66,0.00,,,-99.99,,2013-10-03 05:52:00,
2013-10-02 22:00:00,37.0,28.0,29.78,NE,42,5.0,9.0,69,0.00,,,0.00,,2013-10-03 06:00:00,
2013-10-02 22:42:00,37.0,28.0,29.78,NE,42,5.0,9.0,69,0.00,,,0.00,,2013-10-03 06:42:00,
2013-10-02 22:52:00,37.0,28.0,29.78,NE,42,5.0,9.0,69,0.00,,,0.00,,2013-10-03 06:52:00,
2013-10-02 23:00:00,37.0,27.0,29.77,NE,48,7.0,12.0,68,0.00,,,0.00,,2013-10-03 07:00:00,
2013-10-02 23:42:00,37.0,27.0,29.77,NE,48,7.0,12.0,68,0.00,,,0.00,,2013-10-03 07:42:00,
2013-10-02 23:52:00,37.0,27.0,29.77,NE,48,7.0,12.0,68,0.00,,,0.00,,2013-10-03 07:52:00,